Flight Track Log - Related Links

Times and Time Zones

All times are in EDT time to prevent confusion due to time zone crossing. See the WJA524 flight status page for this flight to view local times or setup timezone preferences in your user account.

Time Position Orientation Groundspeed Altitude Reporting Facility
EDT Latitude Longitude Course Direction KTS MPH feet Rate Location/Type
Tue 09:15:23 PM 48.6333 -123.4667 69° East 150 173 1,700  Level Vancouver Center
Tue 09:16:23 PM 48.6500 -123.5500 287° West 190 219 4,300 2,900 Climbing Vancouver Center
Tue 09:17:23 PM 48.6000 -123.6000 213° Southwest 230 265 7,500 3,150 Climbing Vancouver Center
Tue 09:18:00 PM 48.8844 -122.7240 61° Northeast  Level FlightAware Approximate
Tue 09:18:23 PM 48.5667 -123.5000 117° Southeast 280 322 10,600  Level Vancouver Center
Tue 09:19:00 PM 48.9372 -122.5435 76° East  Level FlightAware Approximate
Tue 09:19:23 PM 48.6167 -123.3667 60° Northeast 350 403 14,000  Level Vancouver Center
Tue 09:20:00 PM 48.8934 -122.3919 114° Southeast  Level FlightAware Approximate
Tue 09:20:23 PM 48.6833 -123.2500 49° Northeast 390 449 16,900  Level Vancouver Center
Tue 09:21:00 PM 48.9403 -122.2424 69° East  Level Estimated
Tue 09:21:23 PM 48.7333 -123.0833 65° Northeast 420 483 19,800  Level Vancouver Center
Tue 09:22:23 PM 48.8000 -122.9167 59° Northeast 450 518 22,800 2,750 Climbing Vancouver Center
Tue 09:23:23 PM 48.8667 -122.7333 61° Northeast 470 541 25,300 2,350 Climbing Vancouver Center
Tue 09:24:23 PM 48.9333 -122.5333 63° Northeast 490 564 27,500 2,200 Climbing Vancouver Center
Tue 09:25:23 PM 48.9833 -122.3500 67° East 510 587 29,700 2,150 Climbing Vancouver Center
Tue 09:26:23 PM 49.0500 -122.1500 63° Northeast 520 598 31,800 2,050 Climbing Vancouver Center
Tue 09:27:23 PM 49.0833 -121.9333 77° East 530 610 33,800 1,800 Climbing Vancouver Center
Tue 09:28:23 PM 49.1167 -121.7333 76° East 520 598 35,400 1,750 Climbing Vancouver Center
Tue 09:29:23 PM 49.1500 -121.5000 78° East 520 598 37,300 1,700 Climbing Vancouver Center
Tue 09:30:23 PM 49.1833 -121.2667 78° East 510 587 38,800 850 Climbing Vancouver Center
Tue 09:31:23 PM 49.1833 -121.0667 90° East 510 587 39,000 100 Climbing Vancouver Center
Tue 09:32:23 PM 49.2000 -120.8667 83° East 500 575 39,000  Level Vancouver Center
Tue 09:33:23 PM 49.2667 -120.6833 61° Northeast 490 564 39,000  Level Vancouver Center
Tue 09:34:23 PM 49.3000 -120.4667 77° East 490 564 39,000  Level Vancouver Center
Tue 09:35:23 PM 49.3500 -120.2833 67° East 490 564 39,000  Level Vancouver Center
Tue 09:36:23 PM 49.4167 -120.0833 63° Northeast 490 564 39,000  Level Vancouver Center
Tue 09:37:23 PM 49.4500 -119.9000 74° East 490 564 39,000  Level Vancouver Center
Tue 09:38:23 PM 49.5167 -119.6833 65° Northeast 500 575 39,000  Level Vancouver Center
Tue 09:39:23 PM 49.5667 -119.5000 67° East 510 587 39,000  Level Vancouver Center
Tue 09:40:23 PM 49.6167 -119.2833 70° East 500 575 39,000  Level Vancouver Center
Tue 09:41:23 PM 49.6833 -119.1000 61° Northeast 500 575 39,000  Level Vancouver Center
Tue 09:42:23 PM 49.7167 -118.8833 77° East 510 587 39,000  Level Vancouver Center
Tue 09:43:23 PM 49.7667 -118.6833 69° East 510 587 39,000  Level Vancouver Center
Tue 09:44:23 PM 49.8167 -118.5000 67° East 510 587 39,000  Level Vancouver Center
Tue 09:45:23 PM 49.8667 -118.2833 70° East 510 587 39,000  Level Vancouver Center
Tue 09:46:23 PM 49.9167 -118.0833 69° East 510 587 39,000  Level Vancouver Center
Tue 09:47:23 PM 49.9667 -117.8833 69° East 510 587 39,000  Level Vancouver Center
Tue 09:48:23 PM 50.0333 -117.6667 64° Northeast 510 587 39,000  Level Vancouver Center
Tue 09:49:23 PM 50.0667 -117.4500 76° East 510 587 39,000  Level Vancouver Center
Tue 09:50:23 PM 50.1167 -117.2500 69° East 510 587 39,000  Level Vancouver Center
Tue 09:51:15 PM 50.1333 -117.1333 77° East 500 575 39,000 -429 Level Edmonton Center
Tue 09:52:15 PM 50.2000 -116.9333 62° Northeast 500 575 38,200 -1,700 Descending Edmonton Center
Tue 09:53:15 PM 50.2333 -116.7333 75° East 490 564 35,600 -2,400 Descending Edmonton Center
Tue 09:54:15 PM 50.2667 -116.5333 75° East 510 587 33,400 -2,100 Descending Edmonton Center
Tue 09:55:15 PM 50.3333 -116.3000 66° East 500 575 31,400 -2,000 Descending Edmonton Center
Tue 09:56:15 PM 50.3667 -116.1167 74° East 490 564 29,400 -2,000 Descending Edmonton Center
Tue 09:57:15 PM 50.4167 -115.9167 69° East 470 541 27,400 -1,950 Descending Edmonton Center
Tue 09:58:15 PM 50.4500 -115.7167 75° East 470 541 25,500 -1,900 Descending Edmonton Center
Tue 09:59:15 PM 50.5000 -115.5167 68° East 460 529 23,600 -1,900 Descending Edmonton Center
Tue 10:00:15 PM 50.5500 -115.3333 67° East 450 518 21,700 -1,950 Descending Edmonton Center
Tue 10:01:15 PM 50.5833 -115.1667 72° East 440 506 19,700 -2,000 Descending Edmonton Center
Tue 10:02:15 PM 50.6167 -114.9833 74° East 430 495 17,700 -1,800 Descending Edmonton Center
Tue 10:03:15 PM 50.6500 -114.8000 74° East 420 483 16,100 -1,600 Descending Edmonton Center
Tue 10:04:15 PM 50.7000 -114.6500 62° Northeast 380 437 14,500 -1,650 Descending Edmonton Center
Tue 10:05:15 PM 50.7500 -114.5333 56° Northeast 360 414 12,800 -1,600 Descending Edmonton Center
Tue 10:06:15 PM 50.8167 -114.4333 43° Northeast 340 391 11,300 -1,600 Descending Edmonton Center
Tue 10:07:15 PM 50.8833 -114.2833 55° Northeast 330 380 9,600 -1,300 Descending Edmonton Center
Tue 10:08:15 PM 50.9167 -114.1667 66° East 300 345 8,700 -750 Descending Edmonton Center
Tue 10:09:15 PM 50.9500 -114.0667 62° Northeast 270 311 8,100 -900 Descending Edmonton Center
Tue 10:10:15 PM 50.9667 -113.9500 77° East 260 299 6,900 -1,250 Descending Edmonton Center
Tue 10:11:15 PM 51.0333 -113.9167 17° North 210 242 5,600 -1,100 Descending Edmonton Center
Tue 10:12:15 PM 51.0667 -113.9500 328° Northwest 150 173 4,700 -850 Descending Edmonton Center
Tue 10:13:15 PM 51.0667 -114.0000 270° West 140 161 3,900 -550 Descending Edmonton Center
Tue 10:14:15 PM 51.1000 -114.0667 309° West 70 81 3,600 -100 Descending Edmonton Center
Tue 10:16:15 PM 51.1000 -114.0333 90° East 20 23 3,600  Level Edmonton Center

Login

Don't have an account? Register now (free) for customized features, flight alerts, and more!